COSMOS 2310

Satellite information

Favourite Embed

Satellite Type and Status

PAYLOADIN ORBIT

Key statistics

Satellite COSMOS 2310 at a glance.

Uptime

11004

Days in orbit

Revolutions

≈ 13.7

Per day

Orbit

LEO

Low Earth Orbit

Inclination

82.9

Latest

Satellite identification and parameters

Extended collection of information and parameters for COSMOS 2310.

Object identification

Identified? True

Debris? False

Object name: COSMOS 2310

International designator: 1995-012A

Object number (NORAD): 23526

Object ID (CCSDS): 23526

Country: COMMONWEALTH OF INDEPENDENT STATES (CIS)

Current information (Y/N): Y

RCS size: LARGE

Orbital parameters

Period: 104.934 minutes

Inclination: 82.9442 deg

SMA: 7369.509 km

Apoapsis: 1007.693 km

Periapsis: 975.055 km

RAAN: 89.0785 deg

Eccentricy: 0.0022144

Argument of periapsis: 348.959 deg

Mean anomaly: 25.2481 deg

Mean motion: 13.72287002 rev/day

Mean motion (dot): 0.00000104 rev/day2

B* drag term: 0.000097376 1/REarth

Two-line elements (TLE)

Creation date: May 6, 2025, 3:54 a.m.

Reference frame: TEME

Reference center: EARTH

Epoch: May 5, 2025, 8 p.m. UTC

TLE line 0: 0 COSMOS 2310

TLE line 1: 1 23526U 95012A 25125.83375462 .00000104 00000-0 97376-4 0 9999

TLE line 2: 2 23526 82.9442 89.0785 0022144 348.9590 25.2481 13.72287002508059

Live tracking on map

Real-time ground track for satellite COSMOS 2310.

In-orbit conjunctions

A list of the most updated potential collisions computed for object COSMOS 2310.

Target Orbit TCA Probability of collision Miss distance Type
FENGYUN 1C DEB SSO 2024-07-14 06:08:06 0.0004375006 437.0 (m) DEBRIS

Associated space launch

There is no information available about the launch of this satellite, yet. Check back as we update our databases every day.

Latest news about this satellite

There are no fresh news available about this satellite. Check back as we update our databases every day.


Newsletter sign-up

Weekly statistics, charts and insights to help you stay on top of the space industry.